Temp
-15 -15 -15 -14 -13 -13 -13 -13 -13 -13 -13 -13 -13 -13 -13 -13 -13 -13 -14 -13 -13 -14 -15 -14 -15 -16 -15 -15 -16 -15 -15 -15 -14 -14 -15 -14 -14 -15 -14 -14 -14 -14 -14 -13 -13 -12 -12 -11 -11 -11 -10 -10 -10 -11
-16 -15 -14 -14 -14 -14 -13 -13 -13 -13 -13 -13 -14 -14 -14 -14 -14 -14 -14 -14 -14 -15 -15 -15 -15 -16 -16 -15 -16 -15 -15 -15 -15 -15 -15 -14 -14 -15 -14 -14 -13 -14 -14 -13 -13 -13 -13 -13 -13 -12 -12 -11 -10 -11
-15 -15 -14 -14 -14 -14 -14 -14 -13 -14 -14 -14 -14 -14 -14 -14 -14 -14 -14 -14 -14 -15 -15 -15 -15 -15 -15 -16 -16 -16 -15 -15 -15 -14 -15 -14 -14 -15 -14 -14 -14 -14 -13 -14 -14 -13 -12 -13 -13 -13 -12 -12 -13 -12
-15 -15 -15 -14 -14 -14 -14 -14 -14 -14 -14 -14 -14 -14 -14 -14 -14 -14 -14 -14 -14 -15 -15 -15 -16 -15 -15 -15 -15 -15 -15 -16 -15 -16 -15 -15 -15 -15 -15 -14 -14 -14 -14 -13 -14 -13 -12 -12 -13 -13 -13 -13 -13 -13
-15 -15 -15 -15 -14 -14 -15 -14 -14 -15 -15 -15 -14 -14 -15 -14 -15 -15 -15 -15 -15 -15 -15 -16 -15 -16 -16 -16 -15 -15 -15 -16 -17 -16 -16 -15 -15 -15 -14 -14 -14 -15 -14 -14 -13 -13 -13 -13 -13 -13 -13 -13 -13 -13
-16 -16 -15 -15 -15 -15 -15 -15 -15 -15 -15 -15 -15 -15 -15 -15 -15 -15 -15 -15 -15 -15 -15 -16 -16 -16 -16 -16 -16 -15 -15 -16 -16 -16 -16 -16 -15 -15 -15 -15 -14 -14 -14 -14 -14 -13 -14 -14 -14 -14 -13 -13 -13 -12
-16 -16 -16 -16 -16 -16 -16 -15 -15 -15 -15 -15 -15 -15 -15 -15 -15 -15 -15 -15 -15 -15 -16 -16 -16 -16 -16 -17 -16 -16 -16 -15 -15 -15 -15 -16 -16 -16 -15 -15 -14 -14 -15 -14 -14 -14 -13 -13 -12 -13 -13 -12 -12 -12
-17 -16 -16 -16 -16 -16 -16 -16 -16 -15 -16 -16 -16 -16 -15 -15 -15 -16 -16 -15 -15 -16 -16 -16 -16 -16 -16 -17 -16 -16 -16 -15 -15 -15 -15 -15 -15 -15 -15 -15 -14 -15 -14 -13 -14 -13 -14 -13 -13 -13 -13 -12 -12 -12
-17 -17 -17 -17 -17 -16 -16 -16 -16 -16 -16 -16 -16 -16 -16 -15 -16 -16 -16 -16 -16 -16 -16 -16 -16 -16 -17 -17 -16 -16 -16 -16 -16 -16 -16 -15 -15 -15 -15 -15 -14 -15 -13 -14 -13 -13 -13 -13 -13 -13 -13 -13 -13 -13
-17 -17 -17 -17 -17 -17 -17 -16 -17 -16 -16 -16 -16 -16 -16 -16 -16 -16 -16 -16 -16 -16 -17 -17 -16 -16 -18 -17 -16 -16 -16 -16 -16 -16 -16 -16 -16 -15 -15 -15 -15 -14 -14 -14 -14 -14 -13 -13 -13 -13 -13 -14 -13 -13
-18 -18 -18 -18 -17 -17 -17 -17 -17 -17 -17 -17 -17 -17 -17 -16 -17 -17 -16 -16 -16 -17 -17 -16 -17 -16 -18 -18 -17 -17 -16 -16 -16 -16 -16 -16 -16 -15 -15 -15 -15 -14 -14 -14 -14 -14 -13 -14 -14 -15 -15 -15 -15 -15
-18 -18 -18 -18 -18 -18 -18 -18 -17 -18 -17 -17 -17 -17 -17 -16 -17 -17 -17 -16 -16 -17 -17 -17 -17 -16 -17 -17 -17 -16 -16 -16 -16 -16 -16 -16 -15 -15 -15 -15 -14 -14 -14 -14 -14 -14 -14 -14 -14 -14 -15 -15 -15 -14
-18 -18 -18 -18 -18 -18 -18 -18 -18 -18 -18 -18 -17 -17 -17 -17 -17 -17 -17 -17 -17 -17 -17 -17 -17 -17 -17 -17 -17 -17 -16 -16 -16 -16 -16 -16 -16 -15 -14 -14 -14 -14 -14 -14 -14 -14 -15 -15 -15 -15 -15 -16 -15 -15
-19 -19 -19 -19 -19 -19 -19 -18 -18 -18 -18 -18 -18 -17 -17 -17 -18 -18 -17 -17 -17 -17 -17 -17 -17 -17 -17 -18 -18 -17 -16 -16 -16 -16 -16 -15 -16 -16 -15 -14 -14 -14 -14 -14 -14 -15 -15 -15 -15 -15 -15 -15 -16 -16
-19 -19 -19 -19 -19 -19 -19 -19 -19 -19 -18 -18 -18 -17 -17 -19 -18 -18 -18 -18 -18 -17 -18 -18 -18 -18 -17 -17 -17 -17 -16 -16 -16 -16 -16 -16 -16 -16 -15 -15 -15 -15 -15 -15 -15 -15 -15 -15 -16 -16 -16 -16 -16 -16
-20 -20 -20 -20 -20 -19 -19 -19 -19 -19 -19 -18 -18 -18 -19 -19 -19 -18 -19 -18 -18 -18 -18 -18 -18 -18 -17 -17 -17 -16 -16 -16 -16 -17 -15 -15 -16 -16 -15 -15 -15 -15 -15 -16 -15 -15 -15 -15 -16 -17 -16 -16 -16 -17
-21 -21 -20 -20 -20 -20 -20 -20 -20 -19 -19 -18 -18 -19 -19 -20 -19 -19 -19 -18 -18 -19 -19 -18 -19 -18 -17 -17 -17 -17 -17 -17 -16 -16 -16 -16 -16 -16 -15 -15 -15 -15 -15 -16 -15 -15 -16 -16 -16 -17 -17 -17 -17 -17
-21 -21 -21 -21 -21 -21 -21 -20 -20 -19 -19 -19 -19 -19 -20 -20 -20 -19 -19 -18 -19 -19 -19 -19 -19 -18 -17 -17 -17 -17 -17 -16 -15 -16 -16 -16 -18 -16 -16 -16 -15 -15 -16 -16 -16 -16 -16 -16 -16 -16 -17 -17 -17 -17
-22 -21 -21 -21 -21 -21 -20 -20 -20 -19 -20 -19 -20 -19 -20 -19 -19 -19 -19 -19 -19 -19 -19 -19 -18 -18 -18 -17 -17 -17 -17 -17 -16 -16 -16 -17 -17 -16 -16 -15 -16 -16 -16 -16 -16 -16 -16 -16 -16 -16 -16 -16 -17 -17
-23 -22 -21 -20 -21 -21 -21 -21 -20 -20 -20 -20 -20 -20 -20 -19 -19 -19 -19 -20 -19 -19 -19 -18 -18 -17 -17 -17 -17 -17 -16 -17 -16 -16 -16 -17 -17 -16 -16 -16 -16 -16 -16 -16 -16 -16 -16 -16 -17 -17 -16 -16 -16 -16
-24 -23 -21 -21 -21 -21 -21 -21 -20 -21 -20 -20 -20 -19 -19 -19 -19 -19 -19 -19 -19 -18 -18 -18 -18 -18 -18 -17 -17 -17 -17 -16 -16 -17 -17 -17 -16 -17 -17 -16 -16 -16 -17 -17 -17 -16 -16 -16 -16 -17 -17 -17 -17 -17
-24 -23 -22 -21 -21 -21 -20 -21 -21 -21 -20 -20 -20 -19 -19 -19 -19 -19 -19 -18 -18 -18 -18 -18 -18 -18 -18 -17 -17 -17 -17 -17 -17 -17 -17 -16 -16 -17 -17 -17 -17 -17 -17 -17 -17 -17 -17 -17 -17 -17 -17 -17 -17 -17
-24 -24 -23 -21 -21 -21 -21 -21 -21 -21 -20 -20 -20 -20 -19 -19 -19 -18 -18 -18 -18 -18 -18 -18 -18 -18 -18 -17 -17 -17 -17 -17 -17 -16 -16 -16 -17 -17 -17 -17 -17 -17 -17 -17 -17 -17 -17 -17 -17 -17 -17 -17 -18 -18
-24 -24 -24 -22 -21 -21 -21 -21 -21 -21 -20 -20 -20 -19 -19 -18 -18 -18 -18 -18 -18 -18 -17 -17 -17 -17 -17 -17 -17 -17 -17 -17 -17 -16 -17 -17 -17 -17 -17 -17 -17 -17 -18 -18 -18 -18 -18 -18 -18 -18 -18 -18 -18 -18
-23 -22 -21 -21 -21 -21 -20 -20 -19 -20 -20 -20 -19 -18 -18 -18 -18 -18 -18 -18 -18 -18 -17 -17 -17 -18 -17 -17 -17 -17 -17 -17 -17 -17 -17 -17 -17 -17 -17 -18 -18 -18 -18 -18 -18 -18 -18 -18 -18 -18 -18 -18 -18 -18
-21 -20 -20 -20 -20 -20 -20 -20 -19 -19 -18 -18 -18 -18 -18 -18 -18 -17 -18 -17 -17 -17 -17 -17 -17 -17 -17 -17 -17 -17 -17 -17 -17 -17 -17 -17 -17 -18 -18 -18 -18 -18 -18 -18 -19 -19 -18 -18 -18 -18 -18 -18 -18 -18
-20 -20 -20 -20 -19 -19 -19 -19 -18 -18 -18 -18 -18 -17 -17 -18 -18 -17 -17 -17 -17 -17 -17 -17 -17 -18 -18 -18 -18 -18 -18 -17 -17 -18 -18 -18 -18 -18 -18 -18 -18 -18 -18 -18 -18 -18 -18 -18 -18 -18 -18 -18 -18 -18
-19 -19 -19 -19 -19 -18 -18 -18 -18 -17 -17 -17 -17 -18 -18 -18 -18 -18 -17 -17 -17 -17 -17 -18 -18 -18 -18 -18 -18 -18 -18 -18 -18 -18 -18 -18 -18 -18 -18 -18 -18 -18 -18 -18 -18 -18 -18 -19 -18 -18 -18 -18 -19 -19
-18 -18 -18 -17 -18 -18 -18 -18 -18 -18 -18 -18 -18 -18 -18 -18 -18 -18 -18 -18 -18 -18 -18 -18 -18 -17 -17 -18 -18 -18 -18 -18 -18 -18 -18 -18 -18 -18 -18 -18 -18 -18 -18 -18 -18 -18 -18 -19 -19 -18 -18 -19 -18 -19
-18 -18 -18 -17 -18 -18 -18 -18 -18 -18 -18 -18 -18 -18 -18 -17 -17 -17 -17 -17 -17 -18 -18 -18 -18 -18 -18 -18 -18 -18 -18 -18 -18 -18 -18 -18 -18 -18 -18 -18 -18 -18 -19 -18 -18 -18 -19 -19 -19 -19 -19 -19 -19 -19
-18 -18 -18 -18 -18 -18 -18 -18 -18 -18 -18 -18 -18 -18 -18 -18 -18 -18 -18 -18 -18 -18 -17 -18 -18 -18 -18 -18 -18 -18 -18 -18 -18 -18 -18 -18 -18 -18 -18 -18 -18 -18 -19 -19 -19 -19 -19 -19 -19 -19 -19 -19 -19 -19
-18 -18 -18 -18 -18 -18 -18 -18 -18 -18 -18 -18 -18 -18 -18 -18 -18 -18 -18 -18 -18 -18 -18 -18 -18 -18 -18 -18 -18 -18 -18 -18 -18 -18 -18 -18 -18 -18 -18 -19 -19 -19 -19 -19 -19 -19 -19 -19 -19 -19 -20 -19 -19 -20
-18 -18 -18 -18 -18 -18 -18 -18 -18 -18 -18 -18 -18 -18 -18 -18 -18 -18 -18 -18 -18 -17 -18 -18 -18 -18 -18 -18 -18 -18 -18 -18 -19 -18 -18 -18 -18 -19 -19 -19 -20 -20 -20 -20 -20 -20 -19 -20 -20 -20 -20 -20 -20 -20
Height
5723 5725 5727 5729 5731 5733 5734 5735 5736 5736 5737 5736 5736 5735 5735 5734 5733 5733 5731 5729 5728 5726 5722 5724 5726 5729 5728 5725 5726 5728 5732 5734 5732 5733 5733 5735 5742 5743 5743 5746 5749 5755 5759 5760 5765 5770 5770 5767 5771 5777 5776 5775 5777 5780
5711 5714 5716 5719 5721 5723 5724 5726 5727 5728 5728 5728 5728 5728 5727 5727 5726 5726 5724 5723 5721 5720 5719 5719 5720 5722 5725 5725 5725 5725 5729 5729 5730 5730 5726 5730 5736 5737 5741 5744 5746 5750 5753 5756 5757 5759 5762 5758 5764 5767 5768 5770 5774 5775
5698 5702 5705 5708 5711 5713 5715 5717 5718 5719 5720 5719 5719 5720 5720 5719 5719 5719 5718 5717 5715 5715 5713 5713 5713 5718 5722 5722 5723 5724 5725 5726 5727 5726 5727 5728 5731 5730 5733 5739 5742 5746 5748 5749 5751 5751 5739 5746 5761 5760 5761 5764 5767 5769
5687 5690 5693 5697 5699 5703 5705 5707 5709 5710 5711 5711 5711 5712 5712 5712 5712 5712 5711 5711 5710 5709 5709 5711 5713 5715 5718 5719 5721 5721 5723 5722 5722 5723 5726 5727 5727 5728 5731 5732 5736 5741 5740 5740 5742 5748 5739 5742 5756 5755 5754 5757 5761 5761
5675 5678 5682 5686 5689 5693 5695 5697 5699 5700 5702 5703 5704 5704 5705 5706 5705 5705 5705 5705 5704 5705 5705 5705 5708 5708 5712 5714 5716 5718 5719 5719 5719 5720 5722 5725 5724 5725 5729 5730 5732 5735 5738 5737 5736 5738 5737 5738 5737 5740 5741 5750 5754 5754
5662 5667 5671 5676 5679 5682 5685 5687 5689 5691 5693 5695 5696 5698 5698 5699 5699 5699 5700 5699 5699 5699 5699 5700 5702 5702 5704 5708 5710 5713 5716 5717 5717 5718 5719 5722 5723 5723 5726 5725 5729 5733 5734 5734 5732 5733 5736 5739 5735 5736 5735 5736 5741 5744
5650 5655 5660 5665 5669 5672 5675 5678 5680 5683 5685 5687 5689 5691 5691 5692 5693 5694 5696 5693 5693 5694 5694 5696 5697 5699 5699 5702 5706 5708 5710 5713 5715 5717 5719 5719 5720 5721 5723 5721 5724 5731 5732 5730 5729 5729 5729 5731 5734 5736 5738 5737 5736 5734
5638 5644 5649 5654 5658 5662 5665 5668 5672 5674 5676 5679 5683 5684 5684 5686 5687 5688 5687 5688 5688 5689 5690 5691 5692 5693 5694 5697 5701 5704 5707 5709 5711 5713 5715 5717 5718 5720 5720 5719 5723 5726 5729 5728 5730 5730 5729 5731 5731 5732 5732 5730 5729 5728
5627 5633 5638 5643 5648 5652 5656 5659 5663 5667 5669 5672 5676 5677 5678 5679 5680 5681 5682 5682 5683 5686 5686 5687 5687 5688 5689 5693 5696 5700 5703 5707 5710 5711 5712 5715 5715 5717 5718 5718 5720 5722 5721 5723 5726 5727 5725 5723 5725 5726 5726 5725 5722 5720
5616 5622 5628 5633 5638 5643 5647 5651 5656 5660 5663 5665 5669 5671 5672 5673 5675 5676 5678 5678 5679 5681 5682 5682 5684 5685 5687 5691 5694 5697 5700 5704 5707 5708 5710 5712 5713 5715 5717 5716 5717 5719 5720 5720 5721 5722 5722 5722 5721 5719 5716 5715 5714 5712
5606 5612 5618 5623 5629 5634 5638 5643 5647 5652 5656 5658 5661 5664 5666 5667 5669 5671 5673 5675 5676 5677 5678 5679 5680 5681 5684 5688 5692 5695 5697 5700 5703 5706 5708 5708 5711 5713 5715 5716 5716 5717 5718 5717 5717 5717 5715 5715 5713 5711 5709 5708 5707 5705
5596 5602 5608 5614 5619 5624 5629 5634 5639 5643 5647 5651 5655 5656 5659 5661 5664 5668 5669 5670 5671 5674 5674 5675 5677 5678 5683 5685 5688 5692 5694 5698 5700 5703 5705 5705 5708 5710 5711 5714 5715 5715 5715 5714 5714 5714 5712 5711 5709 5706 5704 5703 5699 5698
5586 5592 5598 5604 5609 5615 5620 5625 5630 5635 5640 5644 5647 5651 5654 5656 5660 5663 5664 5665 5667 5669 5671 5672 5675 5679 5681 5683 5687 5689 5693 5695 5698 5699 5702 5704 5705 5707 5708 5710 5711 5711 5710 5710 5709 5708 5706 5703 5701 5699 5696 5694 5693 5693
5576 5582 5588 5594 5600 5606 5611 5617 5622 5627 5633 5636 5639 5644 5647 5652 5656 5657 5659 5661 5663 5665 5668 5669 5671 5673 5676 5680 5684 5686 5689 5691 5694 5696 5698 5701 5702 5703 5704 5705 5706 5708 5707 5705 5704 5702 5700 5696 5693 5691 5688 5678 5681 5684
5566 5573 5579 5585 5590 5597 5603 5608 5614 5620 5625 5630 5634 5637 5642 5646 5650 5652 5654 5656 5658 5661 5664 5665 5668 5670 5672 5675 5677 5681 5683 5690 5692 5691 5696 5699 5700 5700 5701 5701 5703 5703 5702 5701 5699 5697 5695 5690 5687 5684 5680 5680 5675 5676
5557 5564 5569 5576 5582 5588 5595 5601 5607 5613 5618 5623 5627 5632 5636 5640 5644 5647 5649 5652 5653 5657 5660 5663 5664 5666 5670 5673 5677 5681 5685 5686 5684 5689 5694 5696 5696 5697 5698 5697 5697 5697 5696 5696 5694 5691 5688 5684 5683 5679 5678 5674 5673 5669
5547 5553 5560 5567 5574 5580 5586 5593 5599 5604 5611 5615 5622 5625 5629 5634 5640 5644 5647 5648 5650 5653 5655 5658 5660 5662 5667 5669 5673 5678 5679 5680 5683 5687 5691 5692 5691 5692 5693 5694 5693 5691 5691 5690 5689 5686 5683 5680 5677 5676 5674 5672 5669 5669
5539 5546 5552 5559 5567 5573 5579 5586 5593 5598 5604 5612 5617 5621 5626 5630 5634 5638 5642 5643 5645 5647 5649 5652 5655 5657 5662 5667 5668 5672 5673 5676 5678 5682 5687 5687 5686 5686 5688 5688 5687 5686 5686 5685 5682 5680 5678 5676 5674 5670 5669 5670 5668 5666
5532 5538 5544 5552 5560 5567 5575 5582 5588 5595 5603 5608 5613 5618 5624 5627 5631 5634 5637 5639 5641 5642 5645 5648 5652 5655 5659 5662 5666 5669 5671 5672 5676 5680 5681 5680 5681 5682 5682 5682 5681 5681 5680 5678 5675 5674 5673 5672 5670 5669 5666 5664 5664 5662
5528 5533 5539 5547 5555 5563 5570 5578 5585 5592 5600 5606 5610 5614 5620 5625 5628 5630 5633 5636 5635 5638 5642 5645 5648 5651 5654 5658 5661 5661 5665 5667 5672 5672 5673 5675 5677 5678 5676 5676 5676 5675 5673 5672 5670 5669 5668 5668 5667 5665 5663 5662 5660 5659
5526 5530 5537 5546 5554 5563 5570 5577 5584 5592 5596 5602 5607 5613 5618 5622 5625 5627 5629 5631 5634 5637 5638 5640 5642 5646 5651 5656 5657 5658 5661 5663 5664 5667 5670 5672 5672 5671 5671 5671 5670 5669 5667 5666 5665 5663 5663 5663 5661 5659 5657 5655 5654 5651
5524 5529 5538 5548 5557 5564 5571 5578 5583 5588 5595 5602 5608 5613 5617 5620 5623 5625 5627 5629 5631 5633 5634 5636 5640 5643 5648 5651 5653 5656 5660 5661 5663 5667 5668 5667 5666 5667 5667 5666 5664 5662 5661 5660 5658 5657 5655 5655 5653 5651 5649 5648 5646 5644
5525 5532 5543 5552 5560 5567 5574 5580 5586 5593 5599 5604 5608 5613 5616 5620 5622 5624 5626 5626 5627 5630 5631 5634 5640 5644 5645 5648 5650 5654 5657 5659 5661 5660 5660 5661 5662 5662 5661 5659 5657 5656 5655 5652 5651 5649 5647 5646 5644 5643 5641 5640 5638 5636
5530 5541 5549 5556 5564 5571 5577 5583 5590 5595 5600 5605 5610 5614 5617 5621 5622 5624 5625 5626 5628 5629 5632 5638 5641 5643 5645 5648 5650 5652 5654 5655 5656 5657 5658 5657 5658 5657 5655 5653 5651 5648 5647 5644 5642 5640 5639 5637 5636 5635 5634 5632 5631 5629
5540 5547 5555 5563 5571 5578 5583 5588 5594 5601 5604 5608 5612 5616 5619 5622 5623 5625 5626 5627 5630 5632 5634 5636 5635 5643 5647 5648 5651 5652 5652 5653 5654 5655 5654 5653 5652 5651 5649 5648 5645 5642 5640 5638 5635 5633 5631 5630 5629 5628 5628 5626 5625 5623
5556 5563 5570 5575 5581 5586 5591 5596 5601 5605 5608 5612 5616 5621 5624 5627 5628 5630 5630 5632 5634 5637 5640 5642 5643 5644 5646 5648 5650 5650 5650 5650 5649 5650 5650 5649 5648 5646 5644 5641 5639 5637 5635 5634 5631 5629 5628 5627 5626 5625 5624 5623 5622 5620
5569 5574 5579 5584 5589 5594 5598 5603 5608 5613 5617 5619 5621 5625 5628 5630 5632 5635 5635 5638 5639 5641 5641 5642 5644 5645 5646 5646 5646 5647 5647 5647 5647 5646 5644 5644 5642 5640 5640 5639 5637 5635 5634 5632 5630 5628 5626 5624 5623 5621 5619 5618 5617 5615
5581 5585 5590 5595 5600 5605 5609 5612 5615 5615 5622 5625 5627 5629 5632 5634 5635 5637 5639 5641 5640 5642 5644 5645 5645 5644 5645 5645 5645 5645 5644 5644 5642 5642 5642 5641 5639 5638 5638 5635 5633 5631 5629 5629 5627 5624 5622 5620 5618 5616 5614 5613 5612 5610
5590 5602 5605 5604 5610 5616 5619 5621 5622 5624 5627 5630 5632 5634 5635 5636 5637 5637 5638 5639 5641 5641 5642 5643 5643 5644 5644 5643 5643 5643 5642 5642 5641 5640 5639 5637 5636 5636 5634 5631 5630 5627 5626 5624 5622 5620 5616 5615 5614 5612 5608 5605 5603 5601
5605 5610 5614 5616 5618 5621 5625 5627 5630 5631 5633 5635 5636 5637 5638 5639 5640 5640 5641 5641 5642 5643 5644 5644 5643 5643 5643 5642 5642 5641 5641 5640 5638 5637 5636 5634 5633 5630 5628 5627 5626 5623 5621 5618 5615 5613 5611 5609 5607 5604 5601 5598 5596 5594
5617 5620 5623 5625 5627 5629 5631 5634 5635 5636 5637 5637 5638 5639 5640 5641 5641 5642 5643 5644 5645 5645 5645 5645 5644 5643 5642 5641 5641 5640 5638 5638 5636 5634 5632 5631 5629 5627 5625 5623 5620 5618 5616 5614 5612 5609 5606 5602 5600 5597 5595 5593 5588 5585
5625 5627 5629 5631 5633 5634 5635 5637 5638 5639 5640 5640 5642 5643 5644 5644 5643 5643 5646 5647 5646 5645 5645 5644 5643 5642 5641 5640 5639 5638 5636 5635 5634 5633 5630 5628 5627 5624 5622 5619 5616 5612 5609 5605 5602 5600 5596 5593 5592 5589 5585 5582 5580 5578
5633 5635 5636 5639 5640 5641 5641 5643 5644 5645 5645 5645 5646 5646 5647 5648 5647 5647 5646 5646 5647 5645 5644 5644 5642 5641 5640 5639 5638 5636 5635 5633 5631 5628 5627 5624 5621 5618 5616 5612 5609 5605 5602 5598 5595 5591 5588 5585 5581 5578 5575 5573 5571 5567
Wind_Speed
38 35 34 36 31 30 28 26 24 23 22 22 23 23 23 24 26 26 24 23 23 23 25 18 20 17 14 12 17 23 17 16 20 19 20 19 21 26 28 27 27 34 34 36 37 37 41 47 44 43 46 49 44 43
36 37 37 33 32 29 26 26 24 23 24 24 25 26 25 26 27 26 23 23 23 22 20 17 19 24 17 10 8 18 24 19 17 26 29 5 18 23 27 27 30 30 35 39 40 35 37 46 36 36 37 39 45 45
38 37 35 33 32 29 27 26 25 27 26 26 26 25 25 26 27 26 23 22 24 22 18 17 23 25 19 16 13 14 8 24 18 27 26 26 20 18 26 32 33 33 36 39 40 32 29 35 37 38 43 44 41 40
38 37 35 35 32 31 29 28 28 28 27 27 26 26 26 26 26 24 21 21 23 22 19 14 14 22 20 19 16 15 10 13 27 22 21 20 23 18 15 17 14 33 18 18 23 31 30 34 30 32 38 40 35 39
39 36 34 34 33 33 30 29 30 28 27 27 24 24 24 24 26 23 20 20 22 22 18 16 16 17 26 24 21 17 13 8 13 12 13 10 14 14 16 5 11 23 27 18 27 31 29 31 36 24 28 44 45 46
38 36 35 36 34 33 31 30 28 28 26 26 25 24 24 26 25 23 17 20 22 22 18 15 14 14 22 27 26 20 16 16 11 9 10 5 16 14 13 18 16 18 11 17 21 23 22 18 17 19 17 17 22 24
38 38 37 35 34 31 31 31 30 30 29 27 25 23 25 25 25 23 17 19 20 21 16 15 15 15 19 23 20 19 18 15 13 10 12 11 10 11 23 19 19 11 8 9 10 13 20 13 8 15 19 21 24 25
38 36 35 34 33 31 31 29 29 29 27 26 25 24 22 22 24 21 19 17 20 19 13 13 15 14 19 19 19 17 16 14 12 11 9 9 11 11 14 19 16 13 13 8 9 12 17 16 13 13 17 20 23 26
37 36 35 34 33 32 31 29 26 27 25 24 24 23 23 24 23 19 16 16 18 16 11 13 13 14 16 21 20 17 15 14 11 10 14 14 12 11 12 15 12 11 8 9 6 7 12 15 17 16 19 23 24 29
38 38 36 35 34 33 33 30 31 29 25 23 24 25 24 25 20 17 14 14 16 13 11 13 11 7 19 19 17 18 14 11 12 11 11 10 11 11 6 7 9 9 10 12 13 15 18 19 23 24 26 27 28 29
37 36 36 34 33 33 32 32 31 27 31 26 24 29 25 24 19 16 12 12 14 11 12 11 10 8 21 21 13 11 14 14 14 13 10 11 12 7 7 8 9 11 13 17 18 20 24 23 22 24 27 27 23 21
38 37 36 34 33 32 32 31 29 27 29 35 31 24 25 23 19 14 9 12 13 10 13 13 11 11 23 14 24 17 13 13 13 11 12 11 7 8 9 9 12 14 15 18 19 21 24 27 26 27 27 25 25 21
37 35 34 33 32 32 32 31 30 30 31 31 30 29 28 24 18 11 11 12 14 12 11 14 14 14 24 21 17 15 15 10 11 10 15 11 15 12 13 16 14 15 18 19 21 22 22 25 27 28 31 31 31 23
36 36 35 35 35 34 34 31 31 31 29 29 29 30 29 23 13 15 14 12 15 13 11 15 16 13 21 23 21 22 21 20 13 11 13 15 7 14 18 17 15 14 18 21 21 22 22 25 27 27 31 11 17 15
36 36 36 36 36 34 34 31 30 29 30 29 32 33 30 22 17 17 16 14 15 11 9 13 14 11 18 22 29 22 9 17 19 23 18 14 17 18 17 17 16 16 18 20 22 22 24 27 26 26 27 34 19 11
32 33 34 34 35 35 35 34 35 33 31 32 30 32 33 28 19 19 16 14 12 12 9 14 18 17 16 21 26 17 21 21 27 23 19 16 18 18 18 18 19 17 18 19 21 21 23 25 20 23 22 21 22 15
35 35 36 37 36 35 33 34 35 34 32 32 23 22 20 19 16 14 15 17 16 14 15 15 17 19 15 15 23 17 21 22 19 18 10 13 18 21 18 20 20 20 18 19 18 18 19 20 21 22 20 18 15 13
36 36 36 36 36 34 34 32 34 31 30 24 26 23 20 24 19 15 16 18 15 15 16 17 18 19 16 23 22 14 28 29 27 26 22 20 22 20 19 20 21 19 19 21 23 22 20 21 22 23 21 18 17 17
27 29 31 31 31 32 33 32 33 29 25 25 26 21 21 20 15 14 18 16 14 16 17 17 16 14 19 24 28 31 28 28 24 17 17 17 20 19 23 21 18 19 20 20 19 16 16 16 16 16 18 20 18 18
22 24 27 30 29 30 30 32 30 25 25 25 23 26 22 18 18 18 14 12 15 16 16 17 13 17 18 20 29 23 27 28 23 15 16 16 17 20 21 21 19 19 18 17 16 15 17 17 17 19 19 20 22 22
21 22 28 31 29 27 27 27 25 24 25 24 26 25 19 19 17 14 14 14 12 9 14 16 19 21 20 15 27 26 10 23 21 17 16 17 19 19 21 21 19 20 19 18 19 20 19 19 19 21 24 24 24 25
20 22 31 33 29 26 25 24 21 23 25 23 21 19 18 16 14 12 10 10 11 11 13 19 24 28 19 22 14 35 21 11 10 12 16 18 19 19 20 20 19 19 21 21 22 23 24 23 24 24 26 25 28 25
21 37 40 36 29 26 25 23 22 20 23 21 21 17 12 11 9 11 10 7 10 15 18 22 19 19 9 25 19 10 9 9 11 13 15 17 16 17 19 20 21 22 22 24 25 25 27 26 27 25 25 26 24 20
47 47 38 36 33 34 29 23 19 22 22 20 16 15 11 8 8 7 8 8 6 6 15 14 12 11 13 14 11 8 9 10 12 13 14 17 16 16 18 20 22 24 24 25 26 25 25 25 25 24 22 21 18 18
53 44 40 39 36 29 24 23 24 24 18 16 15 15 15 11 10 13 12 9 11 12 17 8 12 10 6 6 4 6 8 10 12 11 12 14 15 18 19 20 21 22 23 24 25 26 24 22 18 19 19 17 16 17
36 32 34 31 28 26 25 25 24 19 22 23 19 21 19 15 13 9 6 12 12 11 11 9 7 4 2 2 3 6 9 10 13 13 11 14 15 15 16 15 10 11 12 15 16 13 11 9 9 10 10 11 13 15
34 33 33 31 30 28 28 28 27 27 21 20 24 20 11 9 10 15 14 12 10 7 7 5 3 1 3 6 5 7 10 10 10 11 13 12 10 7 5 7 8 9 11 12 14 12 11 13 13 14 14 14 15 16
38 40 40 40 40 37 34 32 21 12 13 13 11 15 13 10 9 11 10 7 6 5 4 3 1 4 5 7 7 6 7 7 9 6 6 6 7 9 10 14 12 15 17 17 15 12 14 14 16 16 18 19 19 19
33 40 38 35 32 28 22 18 15 15 17 21 16 13 11 9 7 6 4 3 3 3 3 3 3 4 5 6 6 7 4 5 8 9 9 9 9 13 18 18 18 22 21 18 16 22 20 18 22 21 18 21 24 23
40 37 33 30 30 25 22 19 20 19 17 14 10 7 8 6 4 4 4 4 5 4 3 1 3 5 6 5 3 4 6 8 12 13 11 10 12 16 9 16 23 23 18 17 21 25 23 20 17 19 23 26 27 21
27 24 22 21 18 17 16 14 12 11 10 9 9 8 8 6 6 5 5 6 6 4 5 6 6 6 7 7 8 9 9 8 9 10 10 12 15 16 19 20 17 15 16 18 19 21 24 23 20 20 26 27 29 30
24 23 22 21 19 17 17 15 13 11 9 9 7 6 6 7 9 10 12 7 6 5 7 8 5 2 5 6 7 11 12 10 8 9 12 13 15 16 19 22 25 26 26 27 28 28 28 28 26 28 31 31 28 26
23 25 26 25 24 21 21 17 15 13 13 11 9 8 8 6 5 4 4 5 5 3 9 9 9 8 9 11 11 10 10 11 15 17 18 20 22 25 27 28 28 27 28 29 31 32 32 31 30 28 26 27 31 34
Wind_Direction
257 259 260 257 256 257 261 263 266 269 269 274 274 276 280 278 280 288 294 293 286 291 278 278 254 241 272 278 224 223 230 220 236 232 233 235 230 225 218 209 213 218 226 234 242 235 246 247 248 248 255 267 264 274
257 254 253 253 253 255 256 261 263 269 271 271 271 275 280 277 277 284 289 289 285 292 285 273 244 226 238 266 259 247 227 233 246 257 255 261 230 225 216 221 220 222 228 233 236 245 244 247 250 252 258 264 260 268
248 248 251 251 251 253 253 256 261 266 267 270 270 270 275 276 278 283 286 285 282 289 284 264 233 228 233 249 256 268 280 241 256 239 258 263 270 280 217 226 227 230 240 242 236 248 269 241 236 246 257 262 264 267
247 245 245 248 251 250 250 256 263 264 266 267 266 272 270 272 277 281 286 283 279 284 281 283 269 237 238 248 248 261 259 254 238 256 251 260 271 256 263 269 267 225 259 277 235 237 250 270 248 245 248 253 260 264
245 242 242 244 245 247 251 256 260 259 260 263 264 267 265 268 278 281 285 278 275 279 276 272 258 262 238 239 254 248 254 257 223 231 256 260 266 253 246 251 235 231 251 245 240 252 271 270 281 278 247 237 250 256
238 240 239 242 245 248 252 254 254 252 254 259 260 257 262 269 278 281 279 275 277 277 280 275 269 250 232 229 245 247 243 235 247 231 258 270 237 222 204 228 210 234 286 227 244 274 270 273 295 276 280 277 273 273
236 238 241 242 244 247 249 251 253 252 256 254 254 255 260 265 274 283 275 274 278 277 278 269 268 264 243 232 235 240 242 240 236 235 227 247 242 236 223 250 251 231 11 287 294 289 294 292 279 274 281 285 281 277
236 237 236 237 240 242 245 250 252 255 246 247 247 253 258 269 277 279 269 272 273 277 280 269 272 260 250 224 222 227 231 239 247 238 233 231 228 222 227 250 265 269 269 242 231 259 268 284 296 293 288 287 284 280
233 233 234 237 240 243 244 248 249 245 242 242 247 249 259 269 272 270 263 266 270 275 268 268 271 283 247 209 212 210 221 223 230 237 229 231 235 235 248 265 279 275 276 297 274 260 287 302 309 306 293 290 291 287
231 233 234 238 241 241 245 241 244 240 235 241 250 254 263 266 266 263 260 267 268 269 257 262 265 282 196 205 209 202 207 211 223 234 220 215 235 237 224 238 250 267 283 293 296 296 298 303 301 302 304 298 293 291
231 233 238 241 241 243 240 240 247 246 239 236 249 262 253 259 259 256 258 272 268 259 250 250 249 264 196 203 204 212 194 207 217 207 226 223 231 219 213 233 258 272 281 284 290 296 301 306 303 295 291 292 290 293
232 235 237 238 239 238 237 241 243 243 242 244 255 255 248 253 256 258 256 260 256 247 242 247 233 172 162 168 197 216 192 205 222 212 212 248 258 216 213 226 250 261 271 279 288 295 300 301 295 292 295 294 286 284
231 232 231 230 230 231 237 240 241 240 242 247 253 245 245 251 255 255 248 248 247 238 231 241 244 229 209 194 196 189 200 199 225 233 216 218 245 250 246 247 248 262 273 286 296 303 296 296 295 294 293 292 277 283
226 230 230 231 231 232 236 238 241 241 247 243 238 240 244 246 242 240 242 241 244 242 227 235 240 247 216 195 199 208 217 210 193 193 226 249 248 252 253 260 258 267 283 291 295 298 297 296 296 297 303 248 270 272
226 229 230 231 231 232 234 235 237 238 235 234 236 239 243 233 227 238 244 244 247 248 227 225 226 223 204 193 206 212 190 195 215 231 245 246 242 252 256 260 271 281 285 292 296 297 294 292 294 295 293 299 276 276
227 227 227 229 230 232 234 236 232 236 235 239 247 251 237 221 215 226 230 240 254 250 239 222 221 215 215 217 222 226 226 243 251 247 242 250 252 248 253 267 276 283 288 291 289 292 296 296 296 305 313 315 311 302
227 225 226 225 226 227 228 229 228 229 231 237 228 219 223 206 213 222 226 235 244 248 230 228 226 222 222 201 206 201 218 232 237 238 246 271 270 263 264 274 282 287 290 285 288 294 296 296 300 304 313 325 326 313
223 225 229 226 224 224 222 222 219 224 224 221 211 219 227 212 213 219 228 238 234 236 226 227 220 217 209 192 185 208 223 229 247 263 275 267 258 263 267 277 285 287 283 279 287 287 283 291 293 294 302 310 316 311
218 223 222 218 218 216 214 219 217 222 211 210 207 217 218 223 216 219 232 236 244 238 218 228 215 221 196 194 203 212 235 239 247 265 256 257 256 266 276 283 283 279 278 290 291 281 281 296 299 294 297 302 305 305
200 209 210 206 205 199 201 205 208 210 209 205 211 212 210 209 216 221 230 240 223 215 222 214 233 209 191 225 226 233 232 216 214 226 249 248 253 267 281 284 277 274 277 286 293 285 281 290 299 296 293 296 299 297
195 200 198 190 186 189 193 194 189 191 198 194 195 196 194 204 209 206 214 219 235 213 214 233 212 189 181 221 210 215 219 216 231 252 260 261 274 280 282 277 274 275 282 280 280 281 283 286 287 289 290 295 293 290
178 183 177 173 171 172 176 173 170 174 170 170 173 183 186 189 195 201 213 235 239 238 250 205 191 197 197 202 236 216 236 226 207 228 249 267 278 278 278 276 276 281 286 288 286 287 289 291 289 290 291 292 292 290
177 157 157 157 156 153 143 146 153 163 166 168 171 173 159 168 183 216 232 218 219 247 208 183 181 203 218 220 230 197 215 233 251 267 276 279 281 279 277 283 290 290 290 287 287 287 288 289 288 288 291 294 294 292
142 137 137 148 151 146 147 152 161 164 156 154 155 153 152 156 181 186 142 145 165 124 137 144 163 175 173 174 171 197 243 266 266 269 275 277 285 287 292 294 291 290 290 290 290 288 285 285 287 289 292 288 288 284
141 145 146 145 151 156 143 140 143 145 140 138 149 154 146 139 133 142 144 137 114 121 137 116 119 111 144 155 201 240 252 263 274 276 280 289 289 290 293 296 295 295 295 294 292 291 290 287 280 279 282 289 291 287
128 133 138 142 137 133 131 133 140 132 136 132 131 129 120 115 108 111 142 137 101 112 125 139 143 133 128 205 224 254 272 278 283 292 285 287 291 292 293 296 318 333 335 328 305 300 301 301 302 304 306 304 302 298
119 123 127 128 123 122 120 123 130 127 114 110 110 96 72 107 102 109 120 115 122 120 116 117 136 216 283 299 307 287 285 289 288 283 282 283 279 278 311 330 314 324 317 315 316 304 304 304 303 299 296 302 306 304
114 114 109 111 112 112 115 124 115 108 74 125 122 133 115 117 107 115 114 117 114 115 103 95 298 293 293 292 294 287 280 289 286 280 298 302 295 300 311 312 270 301 318 317 323 305 308 316 313 316 308 297 305 296
100 104 100 105 118 113 114 131 133 118 111 120 118 111 110 105 103 106 117 87 46 39 18 347 328 317 309 281 274 285 288 300 309 313 324 312 298 299 312 316 301 304 314 313 298 304 300 306 310 309 314 313 306 304
101 110 116 112 117 121 118 119 125 128 133 133 139 136 134 128 116 118 138 140 103 69 69 73 48 38 21 6 351 318 309 310 304 309 304 301 296 305 303 309 306 302 292 294 301 301 306 304 299 306 308 302 295 303
105 107 108 109 114 123 120 115 116 119 124 121 120 127 127 130 136 144 141 135 135 36 25 44 26 354 337 329 334 337 334 337 326 322 314 305 306 292 309 320 321 323 311 305 305 303 302 308 314 295 295 300 304 306
109 112 112 112 112 110 109 109 111 114 120 127 133 125 117 118 75 125 138 103 61 11 359 342 340 1 328 326 322 328 326 319 315 320 316 318 319 316 312 310 309 308 308 308 308 310 308 307 305 300 299 299 300 300
108 107 105 104 102 99 98 98 100 103 103 102 98 92 85 78 58 71 103 25 54 305 322 319 316 308 306 321 312 307 309 317 317 315 317 316 315 315 315 312 310 309 309 309 306 303 306 308 306 304 301 302 303 303